Regional Weather Roundup
Issued by NWS Sioux Falls, SD

Home | Current Version | Previous Version | Graphics & Text | Print | Product List | Glossary On
Versions: 1 2 3 4 5 6 7 8 9 10 11 12 13 14 15 16 17 18 19 20 21 22 23 24 25 26 27 28 29 30 31 32 33 34 35 36 37 38 39 40 41 42 43 44 45 46 47 48 49 50
412
ASUS43 KFSD 300602
RWRFSD

WEATHER ROUNDUP FOR SE SOUTH DAKOTA/SW MINNESOTA/NW IOWA
NATIONAL WEATHER SERVICE SIOUX FALLS SD
100 AM CDT MON MAY 30 2016

NOTE: "FAIR" INDICATES FEW OR NO CLOUDS BELOW 12,000 FEET WITH NO
SIGNIFICANT WEATHER AND OR OBSTRUCTIONS TO VISIBILITY.


SDZ038>040-050-052>070-300700-
SOUTHEAST SOUTH DAKOTA

CITY           SKY/WX    TMP DP  RH WIND       PRES   REMARKS
BROOKINGS      CLEAR     61  53  75 SE5       30.01F
CHAMBERLAIN    NOT AVBL
HURON          CLEAR     63  51  65 SE7       29.97F
6HR MIN TEMP:  62; 6HR MAX TEMP:  79;

MADISON        FAIR      59  59 100 SE3       30.02F
MITCHELL       CLOUDY    65  56  72 SE6       29.98F
6HR MIN TEMP:  63; 6HR MAX TEMP:  78;

SIOUX FALLS    CLOUDY    55  51  86 NE5       30.00F
6HR MIN TEMP:  54; 6HR MAX TEMP:  77;

WINNER         FAIR      65  56  72 SE13      29.97F
YANKTON        CLOUDY    64  54  68 E6        29.97F
$$

MNZ071-072-080-081-089-090-097-098-300700-
SOUTHWEST MINNESOTA

CITY           SKY/WX    TMP DP  RH WIND       PRES   REMARKS
FAIRMONT       CLEAR     61  52  72 W3        30.02S
JACKSON        CLEAR     61  52  72 CALM      30.04S
LUVERNE        CLEAR     57  54  88 CALM      30.03S
MARSHALL       CLEAR     59  53  80 S7        30.01F
6HR MIN TEMP:  59; 6HR MAX TEMP:  78;

MONTEVIDEO     CLEAR     61  46  59 CALM      30.01F
PIPESTONE      CLOUDY    63  52  67 CALM      30.03F
REDWOOD FALLS  CLEAR     60  50  69 E3        30.00S
TRACY          CLEAR     62  54  75 SW6       30.02F
WINDOM         CLEAR     57  52  82 CALM      30.03S
WORTHINGTON    CLEAR     60  55  83 SW3       30.05S
$$

IAZ001>003-012>014-020>022-031-032-NEZ013-014-SDZ071-300700-
NORTHWEST IOWA

CITY           SKY/WX    TMP DP  RH WIND       PRES   REMARKS
ESTHERVILLE    CLEAR     57  54  89 W5        30.02F
SIOUX CITY     CLOUDY    67  56  67 SE5       30.00S
6HR MIN TEMP:  66; 6HR MAX TEMP:  82;

SPENCER        CLOUDY    58  53  84 CALM      30.04S
6HR MIN TEMP:  58; 6HR MAX TEMP:  76;

STORM LAKE     CLOUDY    64  50  59 NE7       30.03S
$$

ABBREVIATIONS USED IN REMARKS
   TC - TEMPERATURE IN CELSIUS
  WCI - WIND CHILL INDEX
   HX - HEAT INDEX
  VSB - VISIBILITY





USA.gov is the U.S. government's official web portal to all federal, state and local government web resources and services.